THOR ABLESTAR DEB, 3592

Orbit data source: Space-Track

THOR ABLESTAR DEB, 3592 is space debris in LEO originally from a launch on Thu, 24 Jun 1965 UTC launched from the Air Force Western Test Range (AFWTR). Debris objects in space refer to the collection of defunct objects orbiting the Earth. Examples of debris include non-operational satellites, rocket bodies, and fragments generated from explosions, collisions, or faulty payload assembly.

Loading next visibility...
Identifier
3592, 1965-048F
Orbit
LEO
Country
Flag of USUS
Related business
Manufacturer
Unknown
Mission
Spacecraft
Bus & Motor
Unknown
Mass
Unknown
Launch date (UTC)
1965-06-24 (60 years ago)
Launch vehicle
Unknown
Launch site
Air Force Western Test Range (AFWTR)
Object type
Payload
Rocket body
Debris
Shape & HBR
Unknown
Radar Cross Section
Small (<0.1 m²)

Expand to show TLE details & history
Last TLE update: 21 hours ago

TLE from 21 hours ago
0 THOR ABLESTAR DEB
1 03592U 65048F   25260.35716730  .00000245  00000-0  29787-3 0  9996
2 03592  89.8781 291.2094 0062469  48.6676  10.8647 13.62533361982810
Epoch: 2025-09-17T08:34Z
TLE epoch observation values (Epoch: 2025-09-17T08:34:19.254Z)
Latitude
59.75943°
Longitude
166.30292°
Altitude
991.313 km
Speed
7.384 km/s
True Right ascension
19h 25m 40s
True Declination
59° 36' 52"
Sunlit
Object was in daylight at epoch
Visualization orbit readout
Latitude
Unknown
Longitude
Unknown
Altitude
Unknown
Speed
Unknown
Apparent Right ascension
Unknown
Apparent Declination
Unknown
Sunlit
N/A
Visualization observer readout
Local Sidereal Time
22:00:24
Azimuth
Unknown
Elevation
Unknown
Doppler factor
Unknown
Orbital elements
Apogee altitude
1,069.768 km
Perigee altitude
977.293 km
Semi-major axis
7,401.668 km
Eccentricity
0.00625
Inclination
89.8781°
RAAN
291.2094°
Arg. of periapsis
48.6676°
True anomaly
11.00067°
Mean anomaly
10.8647°
Eccentric anomaly
10.93258°
Mean motion
3.40839 °/min
Orbital period
105.62 mins
BSTAR
0.00029787
Loading maneuver chart data...
Computing Atmospheric mass density...

Documentation

Showing up to 5 results
|